User: anonymous   Login
Location: Caltech
(34.1382°N, 118.1253°W)
Time: 16:26:17
(UTC-08:00)
Language:

NOSS 3-2 (A) - Orbit

View from above orbital plane
View from above orbital plane
View from above satellite
View from above satellite

Ground track
Ground track

The orbit data is extracted from the following two-line orbital elements,

1 28095U 03054A   17021.79123515 0.00000020  00000-0  27797-4 0    01
2 28095  63.4214 325.9510 0295000 357.9959   2.0041 13.41345576    00
Epoch (UTC): 21 January 2017 18:59:22
Eccentricity: 0.0295000
inclination: 63.4214°
perigee height: 883 km
apogee height: 1325 km
right ascension of ascending node: 325.9510°
argument of perigee: 357.9959°
revolutions per day: 13.41345576
mean anomaly at epoch: 2.0041°
orbit number at epoch: 0

The dashed part of the orbit path shows where the satellite is in the earth's shadow,  

DLR